"Time","Temp","Dewpoint","Humidity","Pressure","Direction","Speed","Gust","Precip","PrecipRate"
"00:04:56","63.6","59","85","30.18","337","0","0","0.00","0.00"
"00:09:56","63.4","58.8","85","30.18","337","0","0","0.00","0.00"
"00:14:56","63.2","58.8","85.5","30.18","337","0","0","0.00","0.00"
"00:19:58","63.1","58.6","85.5","30.18","337","0","0","0.00","0.00"
"00:24:57","62.9","58.4","85.5","30.18","337","0","0","0.00","0.00"
"00:29:58","62.8","58.5","86","30.18","337","0","0","0.00","0.00"
"00:34:59","62.6","58.4","86","30.17","337","0","0","0.00","0.00"
"00:39:56","62.6","58.4","86","30.17","337","0","0","0.00","0.00"
"00:44:58","62.6","58.6","86.6","30.17","337","0","0","0.00","0.00"
"00:49:56","62.6","58.5","86.5","30.17","337","0","0","0.00","0.00"
"00:54:58","62.5","58.5","86.9","30.17","337","0","0","0.00","0.00"
"00:59:59","62.3","58.4","87","30.17","337","0","0","0.00","0.00"
"01:04:57","62.2","58.4","87.3","30.17","337","0","0","0.00","0.00"
"01:09:59","62.1","58.5","88","30.17","337","0","0","0.00","0.00"
"01:14:56","62","58.4","88","30.17","337","0","0","0.00","0.00"
"01:19:58","61.8","58.2","88","30.17","337","0","0","0.00","0.00"
"01:24:59","61.8","58.2","88","30.17","337","0","0","0.00","0.00"
"01:29:57","61.7","58.1","88","30.17","337","0","0","0.00","0.00"
"01:34:58","61.7","58.1","88","30.17","337","0","0","0.00","0.00"
"01:39:59","61.7","58","87.7","30.17","337","0","0","0.00","0.00"
"01:44:56","61.7","57.9","87.2","30.17","337","0","0","0.00","0.00"
"01:49:58","61.7","58","87.7","30.17","337","0","0","0.00","0.00"
"01:54:59","61.6","58","88","30.17","337","0","0","0.00","0.00"
"01:59:57","61.6","58","88","30.17","337","0","0","0.00","0.00"
"02:04:59","61.5","57.9","88","30.17","337","0","0","0.00","0.00"
"02:09:57","61.5","57.9","88","30.17","337","0","0","0.00","0.00"
"02:14:58","61.4","57.8","88","30.17","337","0","0","0.00","0.00"
"02:19:56","61.3","57.7","88","30.16","337","0","0","0.00","0.00"
"02:24:58","61.3","57.9","88.9","30.16","337","0","0","0.00","0.00"
"02:29:59","61.2","57.9","89","30.16","337","0","0","0.00","0.00"
"02:34:57","61.1","57.8","89","30.16","337","0","0","0.00","0.00"
"02:39:57","61","57.7","89","30.16","337","0","0","0.00","0.00"
"02:44:59","61","57.7","89","30.16","337","0","0","0.00","0.00"
"02:49:57","60.9","57.6","89","30.15","337","0","0","0.00","0.00"
"02:54:58","60.9","57.6","89.1","30.15","337","0","0","0.00","0.00"
"02:59:59","60.9","57.6","89","30.16","337","0","0","0.00","0.00"
"03:04:57","60.9","57.6","89","30.16","337","0","0","0.00","0.00"
"03:09:55","61","57.7","89","30.16","337","0.1","2","0.00","0.00"
"03:14:57","61.3","57.8","88.5","30.16","337","0.3","2.3","0.00","0.00"
"03:19:58","61.5","57.9","88","30.15","337","0","0","0.00","0.00"
"03:24:59","61.6","58","88","30.15","337","0.1","1.2","0.00","0.00"
"03:29:57","61.7","58","87.5","30.15","337","0","0","0.00","0.00"
"03:34:57","61.9","58","87","30.15","337","0","0","0.00","0.00"
"03:39:58","62","58.1","87","30.15","337","0","0","0.00","0.00"
"03:44:56","62.3","58.3","86.7","30.15","337","0","1.2","0.00","0.00"
"03:49:58","62.4","58.3","86.2","30.14","337","0","0","0.00","0.00"
"03:54:59","62.5","58.5","86.9","30.14","337","0","0","0.00","0.00"
"03:59:57","62.5","58.5","86.9","30.15","337","0","1.2","0.00","0.00"
"04:04:57","62.4","58.5","87","30.15","337","0","0","0.00","0.00"
"04:09:59","62.4","58.3","86.4","30.15","337","0","1.2","0.00","0.00"
"04:14:58","62.4","58.4","86.4","30.15","337","0","0","0.00","0.00"
"04:19:56","62.5","58.3","86","30.15","337","0.1","2","0.00","0.00"
"04:24:58","62.5","58.3","85.9","30.15","337","0","0","0.00","0.00"
"04:29:59","62.5","57.9","85","30.15","337","0","0","0.00","0.00"
"04:34:57","62.5","57.9","85","30.15","337","0","0","0.00","0.00"
"04:39:58","62.5","57.8","84.7","30.15","337","0.1","1.2","0.00","0.00"
"04:44:56","62.5","57.7","84.1","30.15","337","0","0","0.00","0.00"
"04:49:58","62.5","57.8","84.6","30.15","337","0","0","0.00","0.00"
"04:54:59","62.5","58.2","85.8","30.15","337","0","0","0.00","0.00"
"04:59:57","62.4","57.8","85","30.15","337","0","1","0.00","0.00"
"05:04:58","62.3","57.7","85","30.15","337","0","1.2","0.00","0.00"
"05:09:56","62.3","57.6","84.7","30.15","337","0","1.2","0.00","0.00"
"05:14:57","62.2","57.6","84.9","30.15","337","0","0","0.00","0.00"
"05:19:59","62.2","57.3","84.2","30.15","337","0","0","0.00","0.00"
"05:24:56","62.1","57.4","84.4","30.15","337","0","0","0.00","0.00"
"05:29:57","62.1","57.8","85.9","30.15","337","0","0","0.00","0.00"
"05:34:59","62","57.8","86","30.15","337","0","0","0.00","0.00"
"05:39:56","62","57.8","86","30.15","337","0","0","0.00","0.00"
"05:44:58","61.8","57.6","86","30.16","337","0","0","0.00","0.00"
"05:49:56","61.7","57.5","86","30.16","337","0","0","0.00","0.00"
"05:54:58","61.7","57.5","86","30.16","337","0","0","0.00","0.00"
"05:59:56","61.8","57.5","85.8","30.17","337","0.1","1.2","0.00","0.00"
"06:04:57","62","57.7","85.8","30.17","337","0","1.2","0.00","0.00"
"06:09:57","62","57.8","86","30.17","337","0","1.2","0.00","0.00"
"06:14:58","62","57.8","86","30.17","337","0.2","1.2","0.00","0.00"
"06:19:56","61.9","57.7","86","30.17","337","0.6","2.3","0.00","0.00"
"06:24:58","61.7","57.5","86","30.17","337","0","1.2","0.00","0.00"
"06:29:56","61.7","57.5","86","30.18","337","0","0","0.00","0.00"
"06:34:57","61.6","57.4","86","30.18","337","0","0","0.00","0.00"
"06:39:58","61.5","57.4","86.2","30.18","337","0","0","0.00","0.00"
"06:44:56","61.5","57.6","86.8","30.19","337","0","0","0.00","0.00"
"06:49:57","61.5","57.5","86.7","30.19","337","0","0","0.00","0.00"
"06:54:58","61.6","57.5","86.3","30.19","337","0","0","0.00","0.00"
"06:59:59","61.7","57.8","87","30.19","337","0","0","0.00","0.00"
"07:04:56","61.8","57.9","87","30.19","337","0","0","0.00","0.00"
"07:09:58","61.9","58","87","30.19","337","0.1","2","0.00","0.00"
"07:14:59","62.2","58.2","86.7","30.19","337","0.3","2.3","0.00","0.00"
"07:19:56","62.4","58.3","86.5","30.19","337","0","1.2","0.00","0.00"
"07:24:57","62.6","58.4","86","30.19","337","0.1","1.2","0.00","0.00"
"07:29:59","62.7","58.5","86","30.20","337","0","0","0.00","0.00"
"07:34:56","62.9","58.6","86","30.20","337","0","2","0.00","0.00"
"07:39:56","63.1","58.5","85.1","30.20","337","0.5","2.3","0.00","0.00"
"07:44:57","63.3","58.7","85","30.20","337","0.7","2.3","0.00","0.00"
"07:49:58","63.5","58.6","84.1","30.20","337","0","0","0.00","0.00"
"07:54:56","63.7","59","84.8","30.20","337","0","0","0.00","0.00"
"07:59:59","63.9","59.1","84.3","30.20","336","0.3","2.3","0.00","0.00"
"08:04:53","64.1","59.1","83.7","30.20","336","0.6","2.3","0.00","0.00"
"08:09:59","64.3","59.3","83.6","30.20","336","0.5","2.3","0.00","0.00"
"08:14:59","64.6","59.6","83.7","30.20","336","0.9","2.3","0.00","0.00"
"08:19:57","65","59.6","83","30.20","336","0.9","3","0.00","0.00"
"08:24:58","65.3","59.7","81.8","30.20","337","1.2","3.5","0.00","0.00"
"08:29:59","65.7","59.8","81.2","30.21","337","1.4","3.5","0.00","0.00"
"08:34:56","66.3","60.4","81.3","30.21","337","0.6","4","0.00","0.00"
"08:39:57","66.8","60.4","80","30.21","338","1.2","3.5","0.00","0.00"
"08:44:54","67.3","60.5","79","30.21","338","1","3.5","0.00","0.00"
"08:49:59","67.7","60.6","77.9","30.21","337","1.1","3.5","0.00","0.00"
"08:54:56","68.1","60.6","77.1","30.21","335","1.2","3.5","0.00","0.00"
"08:59:57","68.5","60.7","76.2","30.21","334","1.5","4","0.00","0.00"
"09:04:58","69","61","75.6","30.21","327","1.5","3.5","0.00","0.00"
"09:09:59","69.5","61.6","75.8","30.21","319","0.8","2.3","0.00","0.00"
"09:14:58","70.1","61.8","74.9","30.21","270","1.1","3","0.00","0.00"
"09:19:59","70.5","61.8","74","30.21","299","1","3.5","0.00","0.00"
"09:24:56","70.9","61.7","72.6","30.21","313","1.9","4","0.00","0.00"
"09:29:57","71.3","61.2","70.5","30.21","340","2.9","6","0.00","0.00"
"09:34:57","71.9","61.3","69.4","30.21","1","1.9","5","0.00","0.00"
"09:39:57","72.5","62","69.4","30.21","99","1.9","6","0.00","0.00"
"09:44:58","72.9","61.4","67.2","30.21","335","2.2","5","0.00","0.00"
"09:49:58","72.9","61.2","66.8","30.21","328","1","4","0.00","0.00"
"09:54:59","72.9","61.4","67.3","30.21","334","1.6","4","0.00","0.00"
"09:59:57","73","61.7","67.7","30.21","346","1.1","4","0.00","0.00"
"10:04:58","73.2","62.1","68.2","30.20","346","1.2","4","0.00","0.00"
"10:09:59","73.4","62","67.5","30.20","345","1.3","5","0.00","0.00"
"10:14:56","73.6","62","67","30.20","344","1.7","4.6","0.00","0.00"
"10:19:57","73.6","62","67","30.20","335","2.2","4","0.00","0.00"
"10:24:58","73.6","61.7","66.5","30.20","334","1.2","3.5","0.00","0.00"
"10:29:59","73.7","62.2","67.3","30.21","350","1.6","5","0.00","0.00"
"10:34:56","74","63","68.5","30.21","349","1.2","4","0.00","0.00"
"10:39:57","74.5","62.1","65.4","30.21","10","1.6","5","0.00","0.00"
"10:44:59","74.9","61.4","62.8","30.21","348","2.9","6","0.00","0.00"
"10:49:56","75.3","62.1","63.5","30.21","348","1","4.6","0.00","0.00"
"10:54:57","75.7","61.5","61.4","30.21","330","1.3","5","0.00","0.00"
"10:59:59","76","61.4","60.6","30.21","335","1.8","4","0.00","0.00"
"11:04:56","76.3","61.3","59.7","30.20","348","1.2","4","0.00","0.00"
"11:09:58","76.4","60.9","58.8","30.20","347","1.1","3.5","0.00","0.00"
"11:14:58","76.8","62.4","61.4","30.20","61","1","4","0.00","0.00"
"11:19:59","77.1","60.5","56.7","30.20","338","3.3","6","0.00","0.00"
"11:24:56","77.2","60.7","56.8","30.20","326","0.8","3.5","0.00","0.00"
"11:29:57","77.6","61.2","57.1","30.20","332","1.6","6","0.00","0.00"
"11:34:58","77.9","61.8","57.8","30.20","342","1.6","5","0.00","0.00"
"11:39:59","78.2","61.4","56.3","30.20","19","1.4","3.5","0.00","0.00"
"11:44:56","78.4","62.7","58.5","30.20","92","0.6","3.5","0.00","0.00"
"11:49:57","79","62.4","56.8","30.19","3","1.3","6","0.00","0.00"
"11:54:57","79.1","61.2","54.4","30.19","41","1.5","4","0.00","0.00"
"11:59:57","78.9","62.1","56.4","30.19","2","1.9","7","0.00","0.00"
"12:04:59","79.2","61.9","55.7","30.19","327","0.5","3.5","0.00","0.00"
"12:09:56","79.4","61.4","54.3","30.19","261","1.8","3.5","0.00","0.00"
"12:14:59","79.8","62.2","55.2","30.19","36","1","6","0.00","0.00"
"12:19:59","80.1","61.5","53.2","30.18","304","1.6","5.8","0.00","0.00"
"12:24:58","80.2","60.3","50.9","30.18","330","3.1","7","0.00","0.00"
"12:29:58","80.2","61.2","52.4","30.18","332","2","6.9","0.00","0.00"
"12:34:58","80.1","61.1","52.3","30.18","4","0.9","4","0.00","0.00"
"12:39:57","80.2","60.6","51.3","30.18","338","3.1","7","0.00","0.00"
"12:44:57","80.4","60.6","51.1","30.18","334","2.9","7","0.00","0.00"
"12:49:57","80.6","61","51.3","30.17","340","1.6","5.8","0.00","0.00"
"12:54:57","80.7","61.1","51.4","30.17","326","1.4","4","0.00","0.00"
"12:59:57","81.2","61.2","50.9","30.17","337","1.1","3.5","0.00","0.00"
"13:04:58","81.4","61","50","30.17","337","2.6","8.1","0.00","0.00"
"13:09:56","81.3","60.5","49.5","30.17","325","3.1","7","0.00","0.00"
"13:14:56","81.3","60.8","50","30.17","333","3.6","7","0.00","0.00"
"13:19:59","81.3","61.2","50.6","30.17","277","2.6","7","0.00","0.00"
"13:24:59","81.4","60.7","49.5","30.17","329","3.6","7","0.00","0.00"
"13:29:58","81.4","61.3","50.5","30.17","291","2.4","6.9","0.00","0.00"
"13:34:57","81.4","60.9","49.9","30.17","232","1.4","5.8","0.00","0.00"
"13:39:56","81.6","62.3","52","30.17","195","0.9","3.5","0.00","0.00"
"13:44:56","81.9","62.1","51.2","30.17","335","1.7","6","0.00","0.00"
"13:49:57","82.1","60.8","48.6","30.17","348","2.4","7","0.00","0.00"
"13:54:57","82.1","60.8","48.6","30.17","348","2","6","0.00","0.00"
"13:59:56","82.2","60.1","47.2","30.17","46","2.2","5","0.00","0.00"
"14:04:56","81.8","59.8","47.4","30.17","167","3","6","0.00","0.00"
"14:09:59","81.8","60.4","48.3","30.17","157","1.6","7","0.00","0.00"
"14:14:57","81.9","60.1","47.7","30.17","335","3.4","10.4","0.00","0.00"
"14:19:57","82.2","58.8","45.1","30.17","325","4","10.4","0.00","0.00"
"14:24:56","82.1","58.7","45.1","30.17","337","3.5","9.2","0.00","0.00"
"14:29:56","82.5","61.3","48.7","30.17","288","1.2","3.5","0.00","0.00"
"14:34:56","83","61","47.5","30.16","321","0.6","3.5","0.00","0.00"
"14:39:59","83.4","60.1","45.5","30.16","331","2.7","8.1","0.00","0.00"
"14:44:58","83.1","60.4","46.3","30.16","310","2.5","10.4","0.00","0.00"
"14:49:58","83.2","60.9","47.2","30.15","329","1.3","10.4","0.00","0.00"
"14:54:57","83.2","59.8","45.3","30.15","5","3.2","12","0.00","0.00"
"14:59:57","83.3","60.7","46.5","30.15","353","2.6","6","0.00","0.00"
"15:04:58","83.4","60.2","45.7","30.15","215","1.8","4.6","0.00","0.00"
"15:09:56","83.6","61.1","46.9","30.15","68","1.5","6","0.00","0.00"
"15:14:55","83.7","60.4","45.4","30.15","61","1.7","5","0.00","0.00"
"15:19:56","83.7","60.1","45","30.15","346","1.7","4","0.00","0.00"
"15:24:57","83.3","60.3","45.8","30.15","80","1.2","9","0.00","0.00"
"15:29:57","83.4","61","47.1","30.15","336","2.9","9.2","0.00","0.00"
"15:34:57","83.7","60.2","45.3","30.15","317","2.9","9.2","0.00","0.00"
"15:39:56","83.6","60.4","45.7","30.15","319","3.5","7","0.00","0.00"
"15:44:57","83.9","62","47.9","30.15","236","2.2","5","0.00","0.00"
"15:49:56","83.9","60.1","44.8","30.14","258","1.2","5","0.00","0.00"
"15:54:57","83.7","59","43.2","30.14","265","2.6","5","0.00","0.00"
"15:59:57","83.5","60.2","45.4","30.14","283","2.1","5","0.00","0.00"
"16:04:58","84","61","46.1","30.14","327","1.7","4","0.00","0.00"
"16:09:57","84.1","60.3","44.7","30.14","81","1.6","4","0.00","0.00"
"16:14:56","84","61.9","47.5","30.14","46","1","5","0.00","0.00"
"16:19:59","84.4","60.7","45","30.14","348","2","7","0.00","0.00"
"16:24:59","84.3","60","44.1","30.14","346","2.5","6.9","0.00","0.00"
"16:29:59","84.2","61.3","46.1","30.14","280","1.4","4","0.00","0.00"
"16:34:59","84.4","60.3","44.4","30.14","317","1.4","7","0.00","0.00"
"16:39:58","84.1","59.5","43.4","30.14","203","1.6","3.5","0.00","0.00"
"16:44:58","83.6","58.9","43.3","30.14","285","1.7","4","0.00","0.00"
"16:49:58","83.5","58.6","43","30.13","306","1.4","4","0.00","0.00"
"16:54:58","83.5","59.1","43.8","30.13","270","1.8","3.5","0.00","0.00"
"16:59:57","83.8","59.1","43.4","30.13","331","2","6","0.00","0.00"
"17:04:58","83.5","58.4","42.7","30.13","349","2.5","6","0.00","0.00"
"17:09:57","83.4","59.5","44.6","30.13","337","2.1","7","0.00","0.00"
"17:14:57","83.5","59.7","44.7","30.13","343","1","4.6","0.00","0.00"
"17:19:58","83.7","59.5","44","30.12","336","1.5","6","0.00","0.00"
"17:24:58","83.4","57.8","41.8","30.12","337","1.4","6","0.00","0.00"
"17:29:56","82.9","57.1","41.5","30.13","338","0.9","3.5","0.00","0.00"
"17:34:56","82.5","57.7","42.9","30.13","321","1","3.5","0.00","0.00"
"17:39:59","82.4","58.2","43.9","30.13","337","1.9","4","0.00","0.00"
"17:44:55","82.1","58.7","45.1","30.13","335","1.6","4","0.00","0.00"
"17:49:56","81.8","59.2","46.5","30.12","345","1","3.5","0.00","0.00"
"17:54:56","81.5","59.6","47.5","30.12","345","0.6","3.5","0.00","0.00"
"17:59:57","81.3","59","46.8","30.12","345","1.3","3","0.00","0.00"
"18:04:58","81.1","59.9","48.6","30.12","345","0.5","3.5","0.00","0.00"
"18:09:56","81.1","60.3","49.4","30.12","345","0.9","2.3","0.00","0.00"
"18:14:56","81.4","59.8","48","30.12","345","1.1","4","0.00","0.00"
"18:19:57","81.9","60.5","48.6","30.12","345","0.1","1.2","0.00","0.00"
"18:24:57","82.3","60.2","47.2","30.12","345","0.8","2.3","0.00","0.00"
"18:29:57","82.6","59.9","46.4","30.12","345","1.1","3.5","0.00","0.00"
"18:34:58","82.4","59.9","46.5","30.11","345","1.3","4","0.00","0.00"
"18:39:57","82.1","60.5","48.1","30.11","345","0.1","1.2","0.00","0.00"
"18:44:58","81.9","59.8","47.2","30.11","345","0.8","3","0.00","0.00"
"18:49:58","81.7","59.6","47.3","30.11","345","0.5","3.5","0.00","0.00"
"18:54:59","81.4","59.5","47.5","30.11","345","0.5","2.3","0.00","0.00"
"18:59:55","81.1","59.2","47.4","30.11","345","0.8","3.5","0.00","0.00"
"19:04:56","80.9","59.6","48.2","30.11","345","0.9","3.5","0.00","0.00"
"19:09:55","80.8","59.2","47.8","30.11","345","0.4","2.3","0.00","0.00"
"19:14:56","80.6","59.7","49","30.11","345","1.1","3.5","0.00","0.00"
"19:19:56","80.3","59.4","48.9","30.11","345","0.3","2","0.00","0.00"
"19:24:56","80.1","59.1","48.7","30.11","345","0.6","2.3","0.00","0.00"
"19:29:58","79.9","59.2","49.3","30.11","345","0.2","2.3","0.00","0.00"
"19:34:58","79.7","58.7","48.8","30.11","345","1.1","3.5","0.00","0.00"
"19:39:57","79.5","58.9","49.4","30.11","345","0.6","2.3","0.00","0.00"
"19:44:58","79.4","58.8","49.6","30.11","345","0.6","3.5","0.00","0.00"
"19:49:59","79.1","59.3","50.6","30.11","345","0.4","2.3","0.00","0.00"
"19:54:59","78.8","59.5","51.7","30.11","345","0.4","2.3","0.00","0.00"
"19:59:57","78.3","59.8","53.1","30.11","345","0.1","1.2","0.00","0.00"
"20:04:59","77.8","60.2","54.8","30.11","345","0","1.2","0.00","0.00"
"20:09:57","77.2","60.7","56.7","30.11","345","0","0","0.00","0.00"
"20:14:56","76.5","59.8","56.4","30.11","275","0","0","0.00","0.00"
"20:19:58","75.9","59.6","57","30.11","275","0","0","0.00","0.00"
"20:24:57","75.3","60","58.9","30.11","275","0.1","1.2","0.00","0.00"
"20:29:59","74.7","60.3","60.8","30.11","275","0.1","1.2","0.00","0.00"
"20:34:59","74.1","60.8","63.2","30.11","275","0","0","0.00","0.00"
"20:39:57","73.7","60.2","62.8","30.11","275","0","0","0.00","0.00"
"20:44:56","73.3","60.1","63.5","30.11","275","0","1.2","0.00","0.00"
"20:49:58","73","60.1","64","30.11","275","0.5","1.2","0.00","0.00"
"20:54:57","72.8","59.9","64","30.11","275","0","0","0.00","0.00"
"20:59:58","72.6","59.9","64.5","30.11","275","0.5","1.2","0.00","0.00"
"21:04:56","72.3","59.9","65","30.11","275","0.2","1.2","0.00","0.00"
"21:09:59","71.8","59.6","65.3","30.11","275","0","0","0.00","0.00"
"21:14:57","71.4","59.6","66.4","30.11","275","0","0","0.00","0.00"
"21:19:59","70.9","59.8","67.9","30.11","275","0","0","0.00","0.00"
"21:24:57","70.5","60.1","69.6","30.11","275","0","0","0.00","0.00"
"21:29:56","70.1","60.3","71","30.12","275","0","0","0.00","0.00"
"21:34:58","69.7","60","71.3","30.12","275","0.1","1.2","0.00","0.00"
"21:39:56","69.5","60.5","72.9","30.12","275","0.2","1.2","0.00","0.00"
"21:44:58","69.4","60.5","73.3","30.12","275","0","0","0.00","0.00"
"21:49:59","69.1","60.5","74","30.12","275","0","1","0.00","0.00"
"21:54:57","68.7","60.5","75.1","30.12","275","0.6","1.2","0.00","0.00"
"21:59:59","68.2","60.4","76.2","30.12","275","0","0","0.00","0.00"
"22:04:57","68","60.4","76.9","30.12","275","0.2","1.2","0.00","0.00"
"22:09:59","67.9","60.5","77.2","30.12","275","0.3","2.3","0.00","0.00"
"22:14:57","67.9","60.5","77","30.12","275","0.6","2.3","0.00","0.00"
"22:19:55","68","60.6","77.2","30.12","275","0.6","2.3","0.00","0.00"
"22:24:57","67.9","60.8","78","30.12","275","0.9","2.3","0.00","0.00"
"22:29:56","67.6","60.8","78.5","30.13","275","0","1","0.00","0.00"
"22:34:58","67.6","60.9","79","30.13","275","0","0","0.00","0.00"
"22:39:59","67.4","60.7","79","30.13","275","0","0","0.00","0.00"
"22:44:56","67.2","60.7","79.8","30.14","275","0","0","0.00","0.00"
"22:49:57","66.8","60.2","79.1","30.14","275","0","0","0.00","0.00"
"22:54:59","66.6","60.3","80.2","30.14","275","0.1","1.2","0.00","0.00"
"22:59:56","66.5","60.7","81.6","30.14","275","0.1","1.2","0.00","0.00"
"23:04:58","66.5","60.8","82","30.14","275","0","0","0.00","0.00"
"23:09:56","66.3","60.6","81.8","30.14","275","0","0","0.00","0.00"
"23:14:58","66","60.3","82","30.14","275","0","0","0.00","0.00"
"23:19:59","65.6","60.3","82.8","30.14","275","0","0","0.00","0.00"
"23:24:56","65.4","60.1","83","30.14","275","0","0","0.00","0.00"
"23:29:58","65.3","60.1","83.4","30.14","275","0","0","0.00","0.00"
"23:34:56","65.2","60.2","84","30.14","275","0","0","0.00","0.00"
"23:39:58","65.1","60.1","84.2","30.14","275","0","0","0.00","0.00"
"23:44:56","64.9","60.1","84.4","30.14","275","0","1","0.00","0.00"
"23:49:58","64.9","60.3","85","30.14","275","0.4","1.2","0.00","0.00"
"23:54:55","65","60.1","84.2","30.14","275","0","0","0.00","0.00"
"23:59:57","65","60.1","84.1","30.14","275","0","0","0.00","0.00"
